This is the latest recevied weather packets stored in our database for station/object W0AKY-13. If no packets are shown the sender has not sent any weather packets the latest 10 day(s).
| Time | Temp. | Humidity | Pressure | Rain* | Wind** | Luminosity | Snow |
|---|---|---|---|---|---|---|---|
| 1777905743 | 18.89° C | 53% | 1004 hPa | 0 mm | - | 331 W/m² | - |
| 1777905440 | 18.89° C | 54% | 1004.2 hPa | 0 mm | - | 327 W/m² | - |
| 1777905138 | 18.89° C | 54% | 1003.9 hPa | 0 mm | - | 313 W/m² | - |
| 1777904835 | 18.33° C | 59% | 1004 hPa | 0 mm | - | 300 W/m² | - |
| 1777904532 | 17.22° C | 61% | 1003.8 hPa | 0 mm | - | 165 W/m² | - |
| 1777904228 | 16.67° C | 60% | 1003.9 hPa | 0 mm | - | 51 W/m² | - |
| 1777903926 | 16.67° C | 63% | 1003.7 hPa | 0 mm | - | 36 W/m² | - |
| 1777903622 | 16.11° C | 62% | 1004.2 hPa | 0 mm | - | 34 W/m² | - |
| 1777903318 | 15.56° C | 62% | 1003.8 hPa | 0 mm | - | 32 W/m² | - |
| 1777903015 | 15° C | 64% | 1003.8 hPa | 0 mm | - | 31 W/m² | - |
| 1777902711 | 15° C | 67% | 1003.9 hPa | 0 mm | - | 31 W/m² | - |
| 1777902409 | 14.44° C | 69% | 1003.7 hPa | 0 mm | - | 30 W/m² | - |
| 1777902105 | 14.44° C | 66% | 1003.9 hPa | 0 mm | - | 29 W/m² | - |
| 1777901804 | 14.44° C | 68% | 1004 hPa | 0 mm | - | 28 W/m² | - |
| 1777901501 | 13.89° C | 69% | 1004.1 hPa | 0 mm | - | 27 W/m² | - |
| 1777901198 | 13.89° C | 70% | 1003.7 hPa | 0 mm | - | 27 W/m² | - |
| 1777900896 | 13.33° C | 69% | 1003.8 hPa | 0 mm | - | 26 W/m² | - |
| 1777900593 | 13.33° C | 71% | 1003.9 hPa | 0 mm | - | 30 W/m² | - |
| 1777900290 | 12.78° C | 72% | 1003.8 hPa | 0 mm | - | 25 W/m² | - |
| 1777899986 | 12.78° C | 73% | 1003.9 hPa | 0 mm | - | 27 W/m² | - |
| 1777899683 | 12.22° C | 75% | 1003.8 hPa | 0 mm | - | 28 W/m² | - |
| 1777899381 | 12.22° C | 77% | 1003.8 hPa | 0 mm | - | 23 W/m² | - |
| 1777899078 | 11.67° C | 78% | 1003.9 hPa | 0 mm | - | 22 W/m² | - |
| 1777898775 | 12.22° C | 78% | 1004 hPa | 0 mm | - | 22 W/m² | - |
| 1777898473 | 11.11° C | 84% | 1004 hPa | 0 mm | - | 21 W/m² | - |
* Rain latest hour (hover to see other rain measurements)
** Current wind speed in m/s (hover to see current wind gust speed)